Precipitable_Water
0.44 0.44 0.44 0.44 0.44 0.44 0.44 0.43 0.43 0.43 0.43 0.43 0.43 0.44 0.45 0.45 0.44 0.44 0.44 0.44 0.44 0.46 0.48 0.50 0.51 0.52 0.53 0.54 0.53 0.53 0.54 0.45 0.37 0.34 0.30 0.24 0.28 0.31 0.30 0.31 0.33 0.33 0.37 0.35 0.29 0.26 0.22 0.23 0.20 0.25 0.21 0.20 0.22 0.21 0.29 0.27 0.29 0.27 0.17 0.13 0.11 0.10 0.09 0.12 0.15 0.18 0.21 0.19 0.21 0.22 0.23 0.23 0.26 0.54 0.70 0.71 0.69 0.63 0.70 0.71 0.86 0.93 0.92 1.07 1.18 1.22 1.27 1.35
0.44 0.44 0.44 0.43 0.43 0.43 0.43 0.43 0.43 0.43 0.42 0.42 0.43 0.43 0.44 0.44 0.45 0.45 0.44 0.44 0.43 0.44 0.44 0.46 0.48 0.51 0.52 0.52 0.52 0.53 0.49 0.41 0.32 0.30 0.26 0.38 0.44 0.39 0.33 0.37 0.34 0.35 0.39 0.28 0.22 0.21 0.18 0.16 0.18 0.21 0.19 0.16 0.28 0.21 0.29 0.23 0.29 0.21 0.17 0.14 0.09 0.11 0.11 0.15 0.18 0.21 0.21 0.21 0.23 0.22 0.23 0.23 0.24 0.25 0.71 0.59 0.57 0.60 0.56 0.70 0.79 0.79 0.92 1.07 1.17 1.24 1.22 1.29
0.44 0.43 0.43 0.43 0.43 0.43 0.43 0.42 0.42 0.42 0.43 0.43 0.43 0.43 0.43 0.44 0.45 0.45 0.45 0.45 0.45 0.44 0.44 0.44 0.46 0.48 0.49 0.50 0.50 0.51 0.44 0.32 0.29 0.22 0.39 0.47 0.47 0.48 0.37 0.41 0.42 0.39 0.30 0.24 0.24 0.21 0.18 0.16 0.18 0.19 0.19 0.17 0.24 0.20 0.25 0.25 0.25 0.23 0.18 0.12 0.11 0.13 0.13 0.16 0.19 0.21 0.23 0.24 0.23 0.21 0.23 0.23 0.23 0.23 0.60 0.56 0.57 0.65 0.53 0.59 0.73 0.74 0.78 0.92 1.08 1.20 1.21 1.23
0.43 0.44 0.43 0.43 0.43 0.43 0.43 0.42 0.42 0.42 0.42 0.43 0.43 0.43 0.43 0.44 0.45 0.46 0.46 0.46 0.45 0.46 0.45 0.44 0.43 0.44 0.45 0.46 0.49 0.48 0.38 0.25 0.17 0.36 0.45 0.52 0.49 0.50 0.42 0.41 0.45 0.43 0.36 0.31 0.25 0.21 0.23 0.22 0.20 0.18 0.17 0.17 0.22 0.26 0.21 0.25 0.20 0.23 0.20 0.13 0.12 0.15 0.14 0.15 0.19 0.22 0.24 0.25 0.23 0.23 0.24 0.23 0.23 0.24 0.42 0.63 0.53 0.58 0.65 0.72 0.60 0.72 0.79 0.90 1.03 1.10 1.15 1.17
0.44 0.44 0.44 0.43 0.44 0.43 0.43 0.43 0.43 0.43 0.43 0.43 0.43 0.44 0.44 0.43 0.44 0.44 0.46 0.46 0.46 0.46 0.46 0.45 0.43 0.43 0.42 0.45 0.46 0.46 0.28 0.10 0.30 0.49 0.55 0.56 0.53 0.53 0.44 0.41 0.45 0.45 0.38 0.32 0.27 0.22 0.22 0.20 0.20 0.18 0.18 0.14 0.21 0.22 0.22 0.26 0.25 0.22 0.18 0.17 0.17 0.17 0.14 0.16 0.19 0.22 0.23 0.25 0.24 0.24 0.23 0.22 0.24 0.31 0.46 0.53 0.35 0.42 0.54 0.64 0.73 0.73 0.81 0.83 0.93 1.03 1.11 1.12
0.44 0.45 0.44 0.43 0.43 0.43 0.43 0.43 0.44 0.44 0.44 0.44 0.44 0.44 0.44 0.43 0.44 0.44 0.44 0.45 0.46 0.46 0.46 0.45 0.44 0.43 0.43 0.44 0.43 0.38 0.19 0.07 0.33 0.37 0.59 0.52 0.55 0.51 0.48 0.48 0.49 0.46 0.36 0.27 0.22 0.19 0.20 0.20 0.18 0.15 0.17 0.17 0.17 0.16 0.21 0.25 0.30 0.19 0.20 0.20 0.20 0.19 0.16 0.18 0.20 0.21 0.23 0.23 0.22 0.22 0.24 0.24 0.23 0.22 0.41 0.38 0.29 0.42 0.57 0.73 0.81 0.85 0.87 0.90 0.99 1.03 1.06 1.12
0.43 0.44 0.44 0.44 0.44 0.43 0.43 0.43 0.43 0.44 0.44 0.44 0.45 0.44 0.44 0.44 0.43 0.43 0.43 0.43 0.44 0.45 0.45 0.46 0.44 0.44 0.42 0.43 0.43 0.28 0.15 0.12 0.18 0.28 0.42 0.56 0.57 0.51 0.50 0.50 0.55 0.45 0.34 0.24 0.20 0.16 0.18 0.18 0.17 0.15 0.16 0.17 0.19 0.19 0.22 0.23 0.28 0.25 0.18 0.20 0.20 0.22 0.19 0.20 0.20 0.22 0.23 0.23 0.22 0.23 0.24 0.22 0.22 0.20 0.31 0.38 0.35 0.50 0.69 0.78 0.85 0.98 1.05 1.09 1.01 1.05 1.03 1.08
0.42 0.42 0.43 0.43 0.44 0.44 0.43 0.43 0.43 0.43 0.43 0.44 0.43 0.44 0.43 0.43 0.43 0.43 0.43 0.43 0.43 0.43 0.44 0.45 0.46 0.44 0.43 0.34 0.24 0.16 0.14 0.09 0.22 0.36 0.43 0.48 0.55 0.52 0.53 0.53 0.47 0.43 0.33 0.24 0.18 0.15 0.17 0.17 0.15 0.18 0.16 0.15 0.19 0.19 0.23 0.22 0.26 0.23 0.19 0.20 0.21 0.23 0.21 0.21 0.22 0.23 0.23 0.23 0.23 0.23 0.22 0.22 0.23 0.21 0.30 0.31 0.42 0.54 0.65 0.78 0.87 0.93 1.01 1.06 1.05 1.03 1.05 1.07
0.43 0.42 0.41 0.41 0.41 0.42 0.43 0.43 0.43 0.43 0.43 0.42 0.43 0.43 0.43 0.42 0.42 0.42 0.42 0.42 0.42 0.42 0.42 0.43 0.45 0.44 0.47 0.34 0.20 0.11 0.08 0.13 0.24 0.49 0.58 0.53 0.53 0.54 0.52 0.43 0.47 0.39 0.34 0.27 0.22 0.16 0.17 0.17 0.18 0.18 0.13 0.15 0.20 0.19 0.21 0.21 0.20 0.23 0.21 0.23 0.23 0.22 0.22 0.22 0.21 0.22 0.21 0.21 0.22 0.21 0.21 0.22 0.22 0.24 0.29 0.43 0.59 0.66 0.74 0.74 0.82 0.90 0.90 0.95 0.99 1.01 1.02 1.04
0.44 0.44 0.44 0.43 0.42 0.41 0.40 0.41 0.41 0.41 0.41 0.42 0.42 0.42 0.42 0.42 0.41 0.41 0.40 0.40 0.40 0.41 0.41 0.41 0.43 0.45 0.38 0.28 0.21 0.10 0.10 0.27 0.48 0.58 0.59 0.59 0.55 0.50 0.48 0.46 0.45 0.39 0.30 0.28 0.24 0.18 0.15 0.17 0.17 0.20 0.23 0.22 0.25 0.22 0.26 0.24 0.21 0.26 0.23 0.22 0.20 0.19 0.19 0.19 0.19 0.19 0.20 0.20 0.21 0.20 0.20 0.21 0.22 0.20 0.28 0.55 0.71 0.73 0.73 0.73 0.79 0.83 0.86 0.92 0.95 1.01 1.05 1.05
0.43 0.43 0.43 0.43 0.43 0.43 0.43 0.41 0.42 0.41 0.41 0.40 0.40 0.40 0.40 0.40 0.40 0.39 0.39 0.38 0.39 0.41 0.42 0.41 0.44 0.40 0.31 0.32 0.16 0.10 0.16 0.24 0.51 0.55 0.55 0.53 0.51 0.46 0.44 0.47 0.45 0.35 0.32 0.28 0.23 0.19 0.17 0.21 0.25 0.29 0.27 0.24 0.26 0.24 0.25 0.26 0.28 0.26 0.23 0.20 0.19 0.19 0.18 0.18 0.18 0.18 0.19 0.18 0.21 0.21 0.20 0.21 0.22 0.20 0.19 0.39 0.65 0.70 0.63 0.70 0.76 0.81 0.85 0.89 0.96 0.99 1.06 1.09
0.41 0.41 0.41 0.41 0.41 0.41 0.41 0.41 0.41 0.41 0.40 0.40 0.40 0.40 0.39 0.38 0.38 0.37 0.37 0.37 0.38 0.42 0.42 0.42 0.44 0.41 0.34 0.23 0.16 0.12 0.24 0.37 0.46 0.51 0.50 0.44 0.40 0.42 0.45 0.46 0.46 0.39 0.34 0.29 0.24 0.21 0.19 0.27 0.31 0.29 0.23 0.27 0.22 0.25 0.24 0.25 0.23 0.22 0.21 0.16 0.17 0.17 0.16 0.17 0.17 0.18 0.18 0.17 0.20 0.22 0.20 0.19 0.20 0.19 0.21 0.40 0.58 0.62 0.60 0.60 0.69 0.77 0.84 0.90 0.96 1.00 1.04 1.05
0.40 0.40 0.39 0.39 0.39 0.39 0.39 0.40 0.40 0.39 0.38 0.38 0.38 0.39 0.38 0.38 0.37 0.36 0.35 0.35 0.37 0.41 0.43 0.42 0.41 0.40 0.27 0.12 0.12 0.19 0.24 0.27 0.31 0.36 0.39 0.41 0.42 0.44 0.44 0.46 0.46 0.42 0.38 0.33 0.25 0.20 0.23 0.33 0.36 0.30 0.33 0.29 0.25 0.21 0.25 0.26 0.22 0.21 0.19 0.17 0.15 0.15 0.13 0.16 0.17 0.17 0.17 0.17 0.20 0.21 0.15 0.17 0.18 0.20 0.23 0.46 0.54 0.62 0.62 0.58 0.64 0.73 0.82 0.88 0.93 0.96 1.00 1.05
0.39 0.39 0.39 0.38 0.38 0.39 0.39 0.39 0.39 0.39 0.38 0.37 0.37 0.36 0.36 0.36 0.35 0.35 0.35 0.35 0.39 0.42 0.43 0.44 0.44 0.35 0.26 0.12 0.12 0.18 0.25 0.28 0.31 0.31 0.32 0.41 0.39 0.39 0.43 0.44 0.44 0.41 0.39 0.36 0.30 0.24 0.27 0.37 0.38 0.36 0.36 0.30 0.24 0.30 0.23 0.22 0.22 0.17 0.18 0.18 0.13 0.12 0.11 0.15 0.16 0.17 0.15 0.18 0.19 0.21 0.16 0.17 0.19 0.20 0.26 0.48 0.54 0.50 0.48 0.55 0.61 0.69 0.77 0.83 0.90 0.92 0.93 0.98
0.39 0.39 0.38 0.38 0.38 0.38 0.39 0.39 0.39 0.39 0.38 0.37 0.36 0.36 0.35 0.33 0.33 0.33 0.34 0.36 0.41 0.44 0.41 0.46 0.44 0.31 0.18 0.15 0.24 0.30 0.38 0.44 0.29 0.26 0.32 0.31 0.33 0.33 0.36 0.41 0.39 0.37 0.35 0.37 0.30 0.27 0.32 0.36 0.36 0.31 0.28 0.33 0.30 0.25 0.20 0.18 0.18 0.18 0.14 0.12 0.14 0.12 0.11 0.15 0.17 0.17 0.14 0.17 0.19 0.19 0.16 0.17 0.19 0.21 0.22 0.45 0.56 0.49 0.44 0.51 0.59 0.65 0.72 0.78 0.84 0.87 0.90 0.92
0.38 0.38 0.38 0.38 0.38 0.38 0.38 0.39 0.39 0.39 0.38 0.38 0.36 0.35 0.34 0.32 0.32 0.34 0.35 0.37 0.42 0.45 0.47 0.36 0.35 0.30 0.19 0.14 0.23 0.48 0.40 0.32 0.28 0.34 0.35 0.33 0.31 0.26 0.35 0.35 0.39 0.35 0.34 0.34 0.32 0.31 0.33 0.34 0.29 0.30 0.29 0.29 0.25 0.21 0.19 0.17 0.15 0.16 0.13 0.12 0.12 0.13 0.12 0.13 0.16 0.17 0.18 0.17 0.18 0.17 0.15 0.18 0.18 0.21 0.23 0.44 0.54 0.51 0.45 0.49 0.54 0.60 0.66 0.72 0.76 0.82 0.85 0.89
0.38 0.37 0.37 0.37 0.37 0.38 0.38 0.39 0.38 0.38 0.38 0.37 0.36 0.32 0.32 0.33 0.38 0.37 0.40 0.41 0.41 0.48 0.42 0.30 0.40 0.41 0.13 0.29 0.41 0.24 0.25 0.34 0.43 0.42 0.40 0.34 0.31 0.30 0.34 0.37 0.32 0.32 0.34 0.36 0.34 0.35 0.34 0.31 0.33 0.31 0.30 0.25 0.25 0.22 0.17 0.14 0.13 0.13 0.16 0.12 0.14 0.12 0.13 0.12 0.16 0.18 0.18 0.17 0.15 0.17 0.15 0.16 0.18 0.20 0.22 0.38 0.52 0.51 0.46 0.45 0.50 0.55 0.61 0.66 0.71 0.76 0.78 0.80
0.37 0.37 0.37 0.37 0.37 0.38 0.38 0.39 0.39 0.38 0.38 0.37 0.34 0.30 0.30 0.43 0.46 0.45 0.42 0.43 0.46 0.43 0.46 0.51 0.48 0.30 0.16 0.27 0.19 0.21 0.39 0.42 0.41 0.43 0.43 0.41 0.39 0.36 0.35 0.33 0.35 0.34 0.34 0.32 0.36 0.30 0.34 0.29 0.30 0.23 0.24 0.23 0.22 0.20 0.15 0.11 0.13 0.13 0.13 0.13 0.13 0.14 0.14 0.13 0.13 0.17 0.18 0.19 0.17 0.18 0.17 0.16 0.17 0.18 0.20 0.29 0.48 0.48 0.41 0.43 0.47 0.51 0.57 0.63 0.66 0.69 0.75 0.78
0.37 0.36 0.36 0.36 0.36 0.37 0.37 0.38 0.38 0.38 0.37 0.36 0.34 0.35 0.44 0.53 0.52 0.49 0.41 0.43 0.32 0.25 0.18 0.25 0.25 0.13 0.16 0.27 0.37 0.35 0.39 0.43 0.45 0.41 0.36 0.40 0.42 0.41 0.38 0.39 0.37 0.34 0.27 0.26 0.28 0.29 0.31 0.27 0.27 0.22 0.17 0.19 0.19 0.19 0.17 0.17 0.17 0.16 0.15 0.14 0.15 0.13 0.13 0.13 0.15 0.19 0.19 0.18 0.16 0.17 0.16 0.16 0.16 0.16 0.18 0.22 0.40 0.43 0.39 0.42 0.46 0.50 0.55 0.59 0.62 0.67 0.75 0.87
0.35 0.35 0.35 0.35 0.35 0.36 0.37 0.37 0.37 0.37 0.36 0.30 0.26 0.34 0.36 0.23 0.28 0.24 0.42 0.39 0.30 0.26 0.28 0.32 0.34 0.29 0.27 0.26 0.30 0.39 0.43 0.44 0.35 0.39 0.42 0.46 0.40 0.37 0.35 0.36 0.35 0.34 0.29 0.21 0.24 0.26 0.29 0.21 0.18 0.16 0.17 0.20 0.22 0.22 0.21 0.21 0.20 0.19 0.18 0.16 0.15 0.15 0.14 0.15 0.16 0.19 0.22 0.19 0.17 0.17 0.17 0.17 0.16 0.16 0.17 0.19 0.29 0.39 0.39 0.40 0.44 0.48 0.53 0.56 0.60 0.70 0.81 0.90
0.34 0.34 0.34 0.33 0.34 0.35 0.36 0.37 0.37 0.37 0.37 0.32 0.32 0.29 0.19 0.21 0.15 0.12 0.17 0.20 0.22 0.26 0.26 0.27 0.29 0.25 0.20 0.24 0.27 0.33 0.31 0.34 0.38 0.37 0.40 0.50 0.43 0.35 0.30 0.32 0.30 0.25 0.26 0.27 0.25 0.30 0.26 0.19 0.17 0.19 0.22 0.22 0.23 0.24 0.24 0.23 0.22 0.20 0.18 0.17 0.15 0.16 0.13 0.14 0.16 0.19 0.22 0.20 0.18 0.20 0.19 0.18 0.18 0.18 0.19 0.21 0.23 0.30 0.35 0.37 0.39 0.43 0.49 0.53 0.63 0.72 0.80 0.86
0.34 0.33 0.34 0.34 0.34 0.35 0.37 0.37 0.37 0.36 0.36 0.34 0.35 0.29 0.30 0.32 0.37 0.35 0.28 0.15 0.19 0.24 0.25 0.24 0.27 0.24 0.25 0.26 0.27 0.33 0.35 0.29 0.30 0.34 0.42 0.44 0.38 0.28 0.28 0.27 0.25 0.21 0.27 0.28 0.27 0.24 0.19 0.15 0.18 0.23 0.25 0.24 0.23 0.23 0.23 0.21 0.20 0.21 0.18 0.17 0.15 0.14 0.16 0.16 0.17 0.20 0.22 0.22 0.19 0.22 0.20 0.19 0.18 0.18 0.20 0.21 0.22 0.26 0.31 0.33 0.33 0.38 0.44 0.56 0.66 0.70 0.77 0.82
0.34 0.34 0.34 0.34 0.34 0.36 0.37 0.37 0.36 0.36 0.34 0.29 0.30 0.34 0.31 0.43 0.49 0.50 0.41 0.29 0.18 0.21 0.21 0.20 0.19 0.20 0.19 0.24 0.28 0.34 0.26 0.23 0.24 0.32 0.36 0.40 0.34 0.30 0.30 0.25 0.23 0.23 0.26 0.28 0.22 0.20 0.17 0.18 0.22 0.24 0.24 0.22 0.21 0.21 0.20 0.20 0.20 0.18 0.18 0.16 0.13 0.16 0.15 0.12 0.15 0.19 0.22 0.22 0.20 0.21 0.20 0.19 0.19 0.19 0.19 0.20 0.21 0.23 0.29 0.32 0.33 0.37 0.39 0.50 0.59 0.67 0.72 0.75
0.34 0.34 0.34 0.34 0.35 0.35 0.37 0.36 0.37 0.37 0.31 0.32 0.35 0.32 0.39 0.51 0.52 0.48 0.35 0.21 0.15 0.15 0.20 0.19 0.20 0.19 0.16 0.15 0.24 0.24 0.19 0.20 0.25 0.26 0.39 0.37 0.31 0.35 0.31 0.27 0.25 0.26 0.24 0.26 0.25 0.23 0.19 0.21 0.26 0.25 0.24 0.23 0.20 0.21 0.19 0.18 0.16 0.18 0.18 0.16 0.15 0.16 0.16 0.16 0.15 0.20 0.23 0.25 0.25 0.23 0.21 0.19 0.18 0.16 0.16 0.19 0.20 0.20 0.27 0.32 0.36 0.49 0.57 0.64 0.72 0.78 0.80 0.76
0.35 0.35 0.35 0.35 0.35 0.36 0.35 0.36 0.31 0.31 0.32 0.34 0.31 0.40 0.44 0.51 0.51 0.49 0.32 0.22 0.21 0.18 0.28 0.26 0.27 0.20 0.19 0.31 0.29 0.19 0.19 0.21 0.21 0.24 0.36 0.36 0.33 0.34 0.30 0.33 0.28 0.24 0.25 0.28 0.27 0.24 0.23 0.25 0.28 0.25 0.24 0.23 0.21 0.19 0.20 0.19 0.16 0.16 0.18 0.17 0.16 0.17 0.15 0.17 0.20 0.20 0.20 0.19 0.24 0.23 0.17 0.15 0.17 0.18 0.17 0.19 0.19 0.20 0.25 0.30 0.37 0.48 0.52 0.64 0.66 0.72 0.84 0.91
0.36 0.36 0.36 0.36 0.36 0.35 0.35 0.24 0.32 0.28 0.29 0.23 0.34 0.42 0.44 0.48 0.52 0.49 0.32 0.19 0.12 0.16 0.30 0.22 0.30 0.18 0.28 0.20 0.25 0.22 0.25 0.16 0.21 0.21 0.32 0.38 0.41 0.36 0.35 0.29 0.29 0.23 0.27 0.27 0.26 0.26 0.23 0.26 0.27 0.24 0.23 0.22 0.21 0.20 0.20 0.20 0.17 0.15 0.14 0.18 0.17 0.17 0.19 0.21 0.23 0.23 0.19 0.16 0.23 0.26 0.17 0.14 0.15 0.17 0.18 0.19 0.19 0.20 0.26 0.29 0.39 0.48 0.56 0.60 0.64 0.73 0.80 0.85
0.36 0.37 0.37 0.37 0.37 0.38 0.22 0.16 0.30 0.28 0.25 0.29 0.41 0.44 0.43 0.43 0.52 0.43 0.27 0.19 0.13 0.25 0.23 0.35 0.23 0.24 0.25 0.25 0.22 0.24 0.10 0.11 0.23 0.23 0.27 0.39 0.34 0.39 0.29 0.27 0.29 0.29 0.32 0.32 0.26 0.20 0.23 0.24 0.24 0.24 0.23 0.22 0.21 0.20 0.22 0.21 0.19 0.15 0.18 0.20 0.21 0.20 0.20 0.22 0.24 0.24 0.22 0.26 0.27 0.26 0.22 0.16 0.13 0.17 0.22 0.23 0.22 0.21 0.24 0.34 0.41 0.49 0.56 0.61 0.66 0.75 0.80 0.85
0.37 0.38 0.38 0.37 0.37 0.38 0.28 0.29 0.25 0.20 0.25 0.35 0.41 0.40 0.42 0.44 0.47 0.42 0.29 0.10 0.09 0.34 0.30 0.32 0.28 0.44 0.33 0.34 0.31 0.19 0.18 0.33 0.22 0.22 0.29 0.40 0.38 0.36 0.29 0.27 0.27 0.29 0.30 0.27 0.17 0.22 0.23 0.21 0.21 0.22 0.23 0.22 0.20 0.24 0.25 0.25 0.21 0.20 0.22 0.23 0.23 0.24 0.25 0.25 0.24 0.23 0.24 0.23 0.19 0.22 0.26 0.18 0.16 0.19 0.24 0.25 0.23 0.28 0.29 0.35 0.42 0.50 0.57 0.62 0.69 0.78 0.83 0.87
0.37 0.37 0.37 0.37 0.36 0.37 0.37 0.30 0.26 0.18 0.30 0.36 0.37 0.36 0.35 0.43 0.34 0.24 0.21 0.11 0.20 0.21 0.41 0.36 0.50 0.40 0.37 0.38 0.33 0.29 0.28 0.33 0.25 0.28 0.35 0.41 0.41 0.35 0.27 0.29 0.30 0.32 0.33 0.28 0.19 0.21 0.23 0.22 0.23 0.23 0.21 0.19 0.23 0.25 0.26 0.25 0.21 0.26 0.28 0.27 0.26 0.26 0.26 0.26 0.25 0.23 0.22 0.20 0.18 0.20 0.23 0.17 0.16 0.20 0.23 0.27 0.24 0.29 0.32 0.39 0.47 0.54 0.59 0.64 0.70 0.79 0.85 0.92
0.37 0.36 0.37 0.37 0.35 0.31 0.33 0.35 0.23 0.24 0.33 0.40 0.39 0.34 0.31 0.30 0.26 0.13 0.15 0.10 0.28 0.18 0.30 0.34 0.34 0.28 0.34 0.32 0.31 0.31 0.28 0.32 0.35 0.37 0.37 0.33 0.36 0.37 0.35 0.40 0.34 0.32 0.29 0.29 0.25 0.23 0.25 0.27 0.27 0.24 0.22 0.24 0.25 0.26 0.27 0.26 0.26 0.29 0.27 0.25 0.25 0.25 0.25 0.27 0.25 0.22 0.20 0.16 0.17 0.21 0.23 0.20 0.16 0.21 0.29 0.28 0.27 0.32 0.42 0.48 0.53 0.59 0.65 0.71 0.77 0.80 0.85 0.91
0.35 0.36 0.36 0.39 0.26 0.29 0.28 0.16 0.21 0.32 0.38 0.40 0.36 0.30 0.25 0.19 0.13 0.12 0.09 0.11 0.24 0.24 0.25 0.27 0.28 0.33 0.28 0.26 0.28 0.32 0.32 0.35 0.33 0.35 0.33 0.38 0.36 0.37 0.35 0.32 0.36 0.31 0.28 0.27 0.25 0.25 0.25 0.26 0.24 0.25 0.27 0.27 0.27 0.25 0.27 0.28 0.28 0.27 0.26 0.24 0.24 0.24 0.25 0.23 0.21 0.22 0.16 0.14 0.18 0.22 0.22 0.22 0.16 0.21 0.31 0.42 0.45 0.43 0.44 0.42 0.47 0.54 0.60 0.66 0.75 0.81 0.88 0.93
0.34 0.35 0.38 0.36 0.35 0.38 0.22 0.16 0.25 0.34 0.33 0.36 0.35 0.18 0.14 0.07 0.14 0.09 0.08 0.26 0.15 0.22 0.21 0.23 0.27 0.29 0.32 0.30 0.30 0.30 0.30 0.33 0.36 0.34 0.31 0.32 0.31 0.30 0.31 0.25 0.28 0.22 0.21 0.21 0.21 0.26 0.23 0.24 0.27 0.27 0.30 0.28 0.26 0.24 0.26 0.27 0.28 0.27 0.27 0.25 0.20 0.19 0.19 0.16 0.17 0.14 0.14 0.14 0.19 0.24 0.24 0.21 0.20 0.32 0.40 0.45 0.48 0.46 0.53 0.50 0.50 0.56 0.62 0.67 0.75 0.83 0.89 0.94
0.34 0.36 0.38 0.36 0.38 0.37 0.40 0.39 0.34 0.31 0.34 0.34 0.22 0.20 0.08 0.06 0.05 0.08 0.09 0.13 0.18 0.26 0.22 0.23 0.24 0.27 0.28 0.30 0.32 0.35 0.36 0.30 0.37 0.36 0.35 0.34 0.31 0.31 0.34 0.32 0.33 0.27 0.19 0.23 0.21 0.21 0.20 0.24 0.25 0.25 0.26 0.28 0.27 0.22 0.23 0.22 0.26 0.26 0.24 0.23 0.20 0.17 0.15 0.13 0.15 0.17 0.16 0.18 0.22 0.23 0.28 0.21 0.29 0.36 0.50 0.46 0.53 0.54 0.53 0.61 0.63 0.61 0.64 0.69 0.76 0.84 0.91 0.98
0.35 0.38 0.31 0.34 0.41 0.43 0.43 0.42 0.36 0.36 0.29 0.25 0.18 0.11 0.09 0.04 0.04 0.19 0.14 0.16 0.16 0.23 0.21 0.21 0.25 0.26 0.24 0.24 0.29 0.36 0.33 0.37 0.36 0.36 0.36 0.34 0.33 0.29 0.31 0.33 0.33 0.30 0.27 0.27 0.21 0.20 0.15 0.15 0.18 0.21 0.21 0.27 0.27 0.26 0.25 0.25 0.26 0.25 0.27 0.24 0.21 0.19 0.15 0.13 0.14 0.13 0.14 0.16 0.20 0.26 0.21 0.20 0.21 0.28 0.54 0.59 0.62 0.59 0.62 0.67 0.71 0.73 0.75 0.77 0.84 0.90 0.96 0.98
0.36 0.36 0.35 0.39 0.43 0.47 0.46 0.39 0.35 0.36 0.28 0.17 0.12 0.08 0.04 0.04 0.07 0.07 0.09 0.13 0.14 0.16 0.19 0.24 0.23 0.24 0.22 0.24 0.28 0.37 0.38 0.34 0.41 0.37 0.36 0.34 0.31 0.31 0.29 0.30 0.33 0.32 0.31 0.24 0.27 0.23 0.19 0.18 0.23 0.25 0.26 0.29 0.27 0.29 0.29 0.27 0.26 0.27 0.26 0.26 0.21 0.18 0.20 0.15 0.18 0.19 0.19 0.18 0.18 0.24 0.24 0.36 0.31 0.54 0.62 0.65 0.68 0.65 0.68 0.68 0.71 0.74 0.80 0.83 0.84 0.88 0.92 0.96
0.35 0.35 0.35 0.34 0.39 0.52 0.48 0.48 0.40 0.34 0.25 0.12 0.07 0.05 0.04 0.05 0.04 0.17 0.13 0.18 0.14 0.15 0.21 0.22 0.23 0.22 0.21 0.22 0.24 0.28 0.40 0.35 0.40 0.37 0.36 0.36 0.36 0.32 0.34 0.33 0.32 0.33 0.29 0.24 0.27 0.21 0.20 0.17 0.22 0.26 0.28 0.28 0.29 0.30 0.29 0.29 0.20 0.27 0.24 0.20 0.21 0.25 0.22 0.19 0.20 0.23 0.23 0.21 0.19 0.30 0.31 0.37 0.50 0.55 0.59 0.62 0.62 0.63 0.68 0.70 0.71 0.75 0.83 0.85 0.84 0.89 0.93 0.96
0.29 0.38 0.29 0.41 0.43 0.58 0.55 0.53 0.49 0.37 0.22 0.10 0.05 0.03 0.06 0.07 0.11 0.10 0.12 0.10 0.14 0.20 0.21 0.18 0.20 0.21 0.20 0.20 0.20 0.26 0.29 0.34 0.38 0.36 0.31 0.38 0.35 0.37 0.35 0.35 0.36 0.36 0.34 0.32 0.29 0.30 0.21 0.19 0.24 0.25 0.24 0.29 0.31 0.31 0.30 0.29 0.27 0.26 0.21 0.24 0.29 0.30 0.27 0.21 0.16 0.19 0.17 0.16 0.22 0.29 0.26 0.30 0.28 0.26 0.54 0.58 0.56 0.57 0.67 0.71 0.75 0.78 0.84 0.84 0.86 0.88 0.90 0.92
0.35 0.41 0.46 0.47 0.55 0.66 0.64 0.61 0.53 0.39 0.25 0.11 0.05 0.07 0.18 0.09 0.18 0.13 0.17 0.18 0.20 0.22 0.19 0.20 0.21 0.24 0.21 0.20 0.20 0.23 0.27 0.27 0.32 0.35 0.32 0.38 0.32 0.47 0.40 0.35 0.40 0.37 0.38 0.38 0.32 0.32 0.29 0.19 0.22 0.26 0.27 0.30 0.33 0.30 0.27 0.28 0.29 0.25 0.24 0.31 0.23 0.21 0.18 0.23 0.20 0.16 0.16 0.15 0.19 0.26 0.31 0.32 0.32 0.32 0.45 0.51 0.52 0.56 0.60 0.73 0.76 0.78 0.82 0.84 0.87 0.88 0.91 0.95
0.39 0.48 0.39 0.53 0.68 0.69 0.66 0.65 0.53 0.36 0.22 0.12 0.11 0.08 0.13 0.13 0.19 0.20 0.24 0.24 0.25 0.20 0.15 0.21 0.21 0.25 0.25 0.22 0.22 0.25 0.26 0.24 0.28 0.33 0.29 0.37 0.31 0.45 0.43 0.43 0.39 0.43 0.42 0.41 0.36 0.37 0.34 0.21 0.20 0.26 0.25 0.29 0.33 0.29 0.21 0.24 0.28 0.28 0.28 0.26 0.30 0.25 0.23 0.20 0.21 0.21 0.19 0.17 0.18 0.22 0.27 0.25 0.37 0.41 0.48 0.50 0.58 0.61 0.60 0.71 0.74 0.78 0.79 0.86 0.92 0.90 0.94 0.92
0.38 0.39 0.37 0.61 0.68 0.70 0.69 0.63 0.46 0.37 0.25 0.16 0.20 0.18 0.26 0.20 0.23 0.27 0.29 0.27 0.23 0.20 0.18 0.19 0.25 0.23 0.25 0.24 0.27 0.24 0.26 0.26 0.28 0.33 0.32 0.41 0.35 0.49 0.42 0.50 0.43 0.45 0.46 0.47 0.42 0.42 0.33 0.32 0.19 0.24 0.30 0.29 0.25 0.31 0.27 0.27 0.24 0.23 0.22 0.23 0.26 0.26 0.32 0.29 0.29 0.22 0.18 0.17 0.18 0.19 0.19 0.25 0.37 0.49 0.51 0.55 0.59 0.64 0.65 0.64 0.69 0.77 0.83 0.81 0.85 0.91 0.98 1.03
0.45 0.40 0.39 0.66 0.70 0.72 0.67 0.53 0.37 0.26 0.23 0.28 0.28 0.26 0.28 0.24 0.26 0.26 0.29 0.31 0.26 0.28 0.23 0.20 0.22 0.22 0.25 0.24 0.26 0.28 0.25 0.26 0.28 0.31 0.31 0.35 0.34 0.32 0.44 0.46 0.49 0.44 0.49 0.45 0.41 0.43 0.34 0.32 0.23 0.27 0.26 0.24 0.27 0.36 0.35 0.33 0.31 0.27 0.23 0.24 0.28 0.25 0.23 0.20 0.19 0.28 0.25 0.19 0.17 0.17 0.16 0.27 0.43 0.57 0.58 0.59 0.66 0.68 0.74 0.73 0.71 0.78 0.82 0.84 0.83 0.88 0.92 0.92
0.39 0.29 0.37 0.68 0.73 0.69 0.52 0.33 0.31 0.34 0.28 0.24 0.23 0.26 0.24 0.33 0.27 0.27 0.27 0.28 0.26 0.24 0.27 0.23 0.23 0.22 0.25 0.26 0.27 0.27 0.26 0.27 0.27 0.28 0.33 0.30 0.40 0.36 0.48 0.52 0.50 0.51 0.46 0.41 0.41 0.47 0.42 0.38 0.30 0.27 0.28 0.28 0.32 0.38 0.41 0.41 0.38 0.37 0.32 0.28 0.31 0.30 0.30 0.24 0.18 0.22 0.26 0.25 0.26 0.24 0.20 0.26 0.52 0.62 0.62 0.62 0.66 0.70 0.74 0.75 0.75 0.79 0.80 0.83 0.85 0.88 0.94 0.97
0.39 0.34 0.55 0.68 0.72 0.63 0.43 0.29 0.29 0.26 0.24 0.27 0.33 0.30 0.31 0.27 0.26 0.29 0.26 0.27 0.23 0.26 0.25 0.22 0.22 0.21 0.24 0.26 0.27 0.26 0.27 0.25 0.30 0.29 0.35 0.38 0.41 0.43 0.50 0.50 0.52 0.49 0.48 0.45 0.45 0.47 0.51 0.37 0.29 0.29 0.33 0.36 0.38 0.40 0.40 0.41 0.39 0.34 0.35 0.37 0.32 0.27 0.30 0.27 0.24 0.27 0.24 0.26 0.22 0.22 0.19 0.28 0.52 0.65 0.66 0.68 0.70 0.70 0.73 0.82 0.80 0.79 0.81 0.86 0.88 0.92 0.93 0.94
0.37 0.38 0.45 0.65 0.68 0.57 0.36 0.19 0.18 0.21 0.24 0.28 0.28 0.27 0.32 0.28 0.26 0.25 0.26 0.29 0.26 0.25 0.22 0.23 0.25 0.27 0.24 0.29 0.29 0.26 0.29 0.21 0.32 0.35 0.34 0.40 0.38 0.49 0.50 0.49 0.51 0.46 0.43 0.44 0.40 0.51 0.37 0.41 0.32 0.27 0.26 0.28 0.31 0.33 0.33 0.37 0.37 0.34 0.33 0.35 0.36 0.35 0.34 0.33 0.31 0.32 0.23 0.25 0.25 0.21 0.16 0.24 0.47 0.63 0.68 0.70 0.69 0.69 0.73 0.81 0.83 0.83 0.83 0.87 0.94 0.94 0.95 0.95
0.42 0.45 0.47 0.52 0.58 0.51 0.29 0.30 0.25 0.22 0.24 0.25 0.26 0.24 0.25 0.27 0.30 0.29 0.27 0.27 0.31 0.29 0.26 0.24 0.27 0.28 0.25 0.29 0.28 0.32 0.32 0.27 0.25 0.36 0.40 0.40 0.40 0.46 0.50 0.50 0.52 0.48 0.52 0.54 0.51 0.54 0.43 0.41 0.35 0.25 0.21 0.19 0.18 0.19 0.22 0.26 0.30 0.35 0.37 0.37 0.36 0.33 0.31 0.28 0.23 0.26 0.22 0.26 0.27 0.23 0.22 0.35 0.52 0.61 0.62 0.66 0.67 0.68 0.73 0.78 0.85 0.85 0.84 0.86 0.89 0.89 0.90 0.90
0.34 0.26 0.38 0.39 0.43 0.40 0.36 0.39 0.31 0.27 0.26 0.26 0.24 0.26 0.28 0.24 0.30 0.32 0.33 0.29 0.31 0.32 0.32 0.31 0.30 0.30 0.25 0.25 0.23 0.26 0.27 0.33 0.29 0.31 0.34 0.35 0.40 0.44 0.50 0.51 0.50 0.49 0.51 0.52 0.52 0.50 0.42 0.45 0.42 0.35 0.29 0.26 0.28 0.30 0.35 0.37 0.35 0.29 0.32 0.35 0.36 0.38 0.37 0.33 0.30 0.25 0.22 0.27 0.25 0.28 0.30 0.35 0.42 0.50 0.54 0.60 0.64 0.64 0.68 0.73 0.77 0.80 0.84 0.87 0.87 0.85 0.84 0.84
0.40 0.28 0.28 0.24 0.33 0.34 0.29 0.30 0.27 0.28 0.23 0.30 0.22 0.27 0.24 0.26 0.29 0.30 0.36 0.28 0.32 0.31 0.33 0.31 0.30 0.25 0.25 0.24 0.23 0.23 0.28 0.28 0.32 0.33 0.34 0.35 0.40 0.44 0.51 0.50 0.51 0.52 0.52 0.51 0.54 0.48 0.43 0.38 0.42 0.42 0.39 0.38 0.40 0.37 0.39 0.37 0.33 0.35 0.34 0.34 0.38 0.37 0.37 0.33 0.29 0.27 0.35 0.27 0.23 0.32 0.39 0.33 0.37 0.47 0.53 0.57 0.63 0.65 0.68 0.72 0.76 0.79 0.82 0.82 0.81 0.82 0.83 0.84
0.24 0.29 0.31 0.34 0.25 0.22 0.24 0.22 0.27 0.25 0.28 0.31 0.25 0.30 0.26 0.26 0.28 0.26 0.33 0.35 0.35 0.34 0.29 0.32 0.31 0.30 0.28 0.26 0.26 0.20 0.24 0.25 0.26 0.27 0.36 0.37 0.38 0.43 0.43 0.50 0.49 0.53 0.52 0.51 0.55 0.47 0.42 0.36 0.43 0.42 0.40 0.44 0.45 0.42 0.41 0.39 0.38 0.38 0.37 0.36 0.35 0.38 0.37 0.34 0.35 0.37 0.38 0.28 0.24 0.34 0.41 0.36 0.41 0.49 0.56 0.60 0.63 0.65 0.68 0.73 0.75 0.79 0.81 0.79 0.79 0.79 0.79 0.79
0.33 0.33 0.33 0.37 0.24 0.27 0.27 0.25 0.27 0.25 0.24 0.27 0.25 0.26 0.25 0.26 0.26 0.30 0.31 0.32 0.32 0.30 0.31 0.26 0.29 0.32 0.31 0.30 0.26 0.21 0.22 0.20 0.22 0.29 0.31 0.36 0.37 0.38 0.37 0.42 0.46 0.51 0.50 0.49 0.51 0.52 0.45 0.40 0.44 0.44 0.41 0.42 0.43 0.44 0.44 0.40 0.39 0.38 0.39 0.39 0.40 0.39 0.40 0.40 0.39 0.41 0.38 0.36 0.36 0.39 0.42 0.43 0.50 0.54 0.60 0.64 0.69 0.70 0.72 0.75 0.77 0.76 0.75 0.76 0.76 0.74 0.74 0.76
0.26 0.27 0.26 0.35 0.33 0.29 0.28 0.25 0.23 0.23 0.19 0.24 0.20 0.23 0.24 0.24 0.25 0.29 0.34 0.32 0.28 0.30 0.35 0.28 0.31 0.34 0.35 0.33 0.30 0.24 0.25 0.24 0.27 0.27 0.33 0.31 0.36 0.39 0.36 0.37 0.38 0.43 0.46 0.45 0.48 0.52 0.43 0.40 0.46 0.44 0.39 0.40 0.44 0.46 0.46 0.43 0.40 0.36 0.39 0.40 0.41 0.42 0.43 0.45 0.44 0.44 0.44 0.41 0.44 0.44 0.42 0.42 0.55 0.64 0.64 0.67 0.69 0.71 0.70 0.68 0.70 0.72 0.73 0.73 0.72 0.72 0.74 0.75
0.38 0.40 0.38 0.29 0.24 0.27 0.27 0.25 0.20 0.18 0.17 0.19 0.19 0.23 0.24 0.26 0.26 0.29 0.30 0.36 0.31 0.31 0.33 0.30 0.32 0.33 0.36 0.35 0.33 0.30 0.32 0.29 0.29 0.29 0.34 0.34 0.30 0.38 0.37 0.39 0.42 0.38 0.41 0.43 0.45 0.47 0.46 0.42 0.46 0.44 0.36 0.37 0.43 0.44 0.44 0.44 0.42 0.40 0.39 0.39 0.39 0.38 0.37 0.41 0.42 0.48 0.43 0.39 0.43 0.44 0.39 0.40 0.55 0.65 0.65 0.64 0.64 0.65 0.63 0.65 0.66 0.67 0.70 0.71 0.71 0.72 0.72 0.73
0.44 0.45 0.43 0.34 0.20 0.25 0.22 0.22 0.21 0.19 0.14 0.18 0.20 0.22 0.24 0.26 0.30 0.31 0.27 0.33 0.34 0.34 0.33 0.32 0.33 0.31 0.31 0.31 0.32 0.32 0.34 0.33 0.32 0.33 0.35 0.38 0.38 0.42 0.43 0.45 0.44 0.40 0.38 0.42 0.49 0.40 0.42 0.41 0.39 0.40 0.35 0.35 0.43 0.45 0.44 0.44 0.41 0.35 0.36 0.40 0.43 0.42 0.43 0.46 0.49 0.52 0.50 0.50 0.41 0.37 0.40 0.52 0.57 0.62 0.59 0.58 0.61 0.63 0.64 0.65 0.65 0.66 0.67 0.69 0.71 0.70 0.71 0.72
Wind_Speed
15 15 16 16 16 16 16 17 17 17 17 18 18 18 18 18 18 19 19 19 20 20 20 20 20 20 20 20 21 21 21 21 21 20 20 20 19 19 19 18 18 19 18 16 16 16 16 17 17 17 16 16 17 17 18 19 19 18 17 17 16 15 14 14 15 15 14 13 11 11 10 9 11 12 12 11 11 11 11 12 13 13 12 12 11 12 13 13
15 15 15 16 16 16 17 17 17 17 17 18 18 18 18 18 18 18 18 18 19 19 19 20 20 20 20 20 20 21 21 21 21 21 20 19 18 19 19 18 17 18 18 17 18 17 16 17 17 16 16 16 17 17 18 18 19 18 17 17 17 15 14 15 16 16 14 14 13 14 12 10 12 13 14 13 12 12 11 11 12 10 10 11 11 13 13 14
15 15 15 16 16 16 17 17 17 17 17 17 18 18 18 18 18 18 18 18 18 19 19 19 19 20 20 20 20 20 21 21 20 19 18 17 17 18 19 18 16 16 17 17 18 17 17 17 16 15 15 16 16 17 17 18 18 19 18 17 16 15 15 16 17 17 17 17 15 15 13 12 13 14 14 13 12 13 12 12 11 10 12 12 13 14 14 14
15 15 16 16 16 17 17 17 17 17 17 17 17 17 18 18 18 18 18 18 18 18 19 19 19 20 20 20 20 20 19 19 18 17 16 15 16 16 17 18 16 16 16 16 17 17 16 15 15 15 15 15 16 17 17 18 18 18 19 18 15 15 17 17 18 19 19 19 17 16 14 14 15 13 13 13 12 13 14 14 13 13 14 14 15 15 15 15
16 16 16 16 17 17 17 17 17 17 17 17 17 17 18 18 18 18 18 18 18 18 18 19 19 19 19 20 19 19 18 17 16 16 16 16 15 15 16 17 16 16 16 16 16 16 15 14 15 15 14 15 16 16 17 19 19 18 19 18 17 16 18 18 18 20 20 19 18 16 15 16 14 12 14 13 12 14 15 15 15 15 15 15 16 16 15 16
16 16 16 17 17 17 17 17 17 17 17 17 18 18 18 18 18 18 18 18 18 18 18 18 19 19 19 19 18 18 16 16 17 17 17 17 15 15 15 15 15 15 16 16 15 15 15 14 14 14 14 15 16 16 17 18 19 19 19 18 18 18 18 19 19 20 20 18 18 18 17 16 14 14 16 16 14 13 13 13 14 15 15 15 15 15 15 16
16 16 16 17 17 17 17 17 17 17 18 18 18 18 18 18 18 18 18 18 18 18 18 19 19 19 19 18 17 17 17 18 18 17 18 17 15 15 14 14 14 15 15 15 15 15 15 14 14 14 14 14 16 16 17 18 18 19 18 17 18 19 20 20 21 21 21 20 20 20 18 17 17 16 17 18 17 14 12 12 12 13 13 14 14 15 15 16
16 16 16 16 17 17 17 17 17 18 18 18 18 18 18 18 18 19 19 19 19 19 19 19 19 19 18 17 16 16 17 19 18 17 17 16 15 15 14 14 14 15 15 15 16 15 14 14 14 14 13 15 16 16 17 18 18 19 18 17 18 20 21 22 22 22 22 22 22 20 19 19 20 17 16 18 18 15 13 12 12 12 12 14 14 14 15 15
16 16 16 16 16 17 17 17 17 18 18 18 18 18 19 19 19 19 19 19 19 19 19 19 19 18 17 17 16 16 17 17 16 16 16 15 15 15 15 15 15 15 14 15 15 14 14 15 15 15 14 15 16 16 17 17 17 18 18 19 19 20 21 21 22 22 22 21 21 20 19 20 19 17 16 16 15 14 14 13 13 13 13 14 14 15 15 14
16 16 16 17 17 17 17 17 18 18 18 18 19 19 19 19 20 20 19 19 19 19 19 19 19 18 17 17 15 16 17 16 15 15 14 14 15 16 16 16 15 15 15 15 15 15 15 15 15 14 14 14 15 16 16 16 18 18 18 19 19 20 21 21 22 22 22 21 21 20 21 21 18 16 16 15 14 14 13 14 14 14 15 16 15 15 15 15
16 17 17 17 17 17 17 18 18 18 18 19 19 19 19 19 20 20 20 20 20 20 19 19 19 18 18 18 17 18 18 16 15 14 14 14 15 17 17 17 17 16 15 15 16 17 16 15 14 13 13 14 15 16 16 16 17 18 18 18 19 19 20 21 21 22 21 20 21 21 21 21 17 16 17 16 15 14 14 15 16 16 17 17 16 16 15 14
17 17 17 17 17 17 18 18 18 18 19 19 19 19 20 20 20 21 21 21 21 20 20 20 19 19 19 18 20 20 18 16 16 15 15 16 17 18 18 18 18 18 16 15 16 17 17 15 14 13 14 14 14 14 15 16 16 17 17 17 18 18 19 21 21 21 20 20 20 19 20 21 19 19 19 17 16 15 15 16 17 17 16 17 16 15 15 14
17 17 17 18 18 18 18 19 19 19 20 20 20 21 21 21 21 22 22 21 21 21 20 20 19 19 19 19 21 20 19 20 20 19 19 18 18 19 18 19 19 19 18 16 16 17 17 16 14 15 14 13 13 14 15 16 16 17 16 16 17 17 18 19 19 20 20 20 19 18 19 20 20 20 19 17 17 15 15 16 17 17 16 16 16 15 15 14
18 18 18 18 19 19 19 19 20 20 20 21 21 21 22 22 22 23 22 22 21 21 21 20 19 19 19 20 22 21 21 22 21 21 20 19 18 18 18 18 19 19 19 17 16 15 16 17 15 15 15 14 15 16 15 15 15 15 16 16 16 16 17 17 17 18 19 19 19 19 20 20 20 20 19 19 18 16 16 16 17 17 17 17 16 16 15 15
18 18 19 19 19 19 20 20 20 20 21 21 21 22 22 23 23 23 23 22 21 21 20 19 20 19 19 21 22 21 20 20 21 21 20 19 18 18 18 18 19 19 18 18 17 15 15 17 16 15 16 16 15 15 15 15 15 14 16 17 15 16 16 16 17 18 19 19 18 19 20 20 20 20 19 20 20 18 17 17 18 18 18 18 17 16 15 15
19 19 19 20 20 20 20 20 20 21 21 22 22 22 23 23 24 23 23 22 21 21 20 19 19 19 19 20 20 19 18 19 19 19 19 19 19 18 18 17 18 18 18 18 17 16 16 16 16 17 17 16 15 15 14 15 15 14 15 16 16 16 15 14 16 17 18 18 18 19 21 20 20 20 19 21 22 20 19 18 18 19 20 19 17 17 16 15
20 20 20 20 20 20 20 21 21 21 22 22 23 23 23 23 23 22 21 21 21 20 20 19 19 19 20 20 19 19 18 17 17 16 17 18 19 18 17 16 17 18 18 18 18 17 17 16 16 16 16 16 14 13 14 15 16 15 14 15 16 16 15 15 15 15 15 16 18 19 20 21 21 20 19 22 24 22 20 19 19 19 20 20 18 18 17 17
20 21 21 21 21 21 21 21 21 22 22 23 23 23 23 21 20 20 20 20 19 19 19 19 18 18 19 18 18 18 18 17 16 16 16 17 17 18 16 16 16 17 17 17 18 18 17 17 16 15 16 16 14 13 15 16 14 14 14 15 15 15 16 16 15 14 14 15 18 18 19 21 22 21 19 22 25 23 21 20 20 20 20 20 19 19 18 17
21 21 21 21 21 21 21 21 21 21 22 22 22 22 20 19 18 19 19 19 19 18 19 19 18 18 18 17 17 18 18 18 18 17 16 16 16 17 16 16 16 16 16 16 17 18 17 16 16 16 16 16 16 16 17 16 14 14 14 14 15 15 16 17 15 15 15 15 19 19 20 21 21 22 20 22 25 24 23 21 20 20 19 19 19 19 19 17
21 21 21 21 20 20 20 20 21 21 21 21 20 19 18 18 19 19 20 21 22 21 22 21 21 21 21 21 20 19 19 19 18 16 15 14 15 15 16 17 16 16 16 16 17 17 17 17 18 18 16 16 17 18 17 17 15 15 16 16 16 16 16 17 15 16 15 15 18 18 19 20 21 22 20 21 24 24 23 22 20 20 19 19 19 18 18 18
21 21 20 20 20 20 20 20 20 20 20 19 18 16 16 17 18 19 21 22 23 24 25 24 24 24 23 23 21 19 18 18 18 17 15 14 14 14 16 16 16 16 16 16 16 15 16 18 18 17 17 17 17 17 17 17 16 16 17 17 17 17 17 16 15 16 16 15 17 16 18 20 21 21 20 19 22 24 24 22 21 21 20 18 17 17 18 18
20 20 20 20 19 19 19 20 20 20 19 17 16 15 16 17 17 19 20 20 22 23 25 25 25 25 24 24 23 21 19 18 18 18 16 15 15 15 15 15 16 17 16 15 15 15 16 18 17 16 17 17 16 16 16 17 17 17 17 17 17 16 15 16 15 16 15 14 16 16 17 20 21 20 20 20 21 23 25 24 23 22 20 18 17 18 19 18
20 19 19 19 19 19 19 19 19 18 16 16 16 16 16 17 18 18 18 18 20 19 21 23 24 25 24 23 22 21 21 19 19 19 17 15 16 16 15 14 15 16 16 16 16 16 16 16 16 16 16 15 16 16 15 16 16 17 16 17 17 16 14 15 14 14 15 15 16 17 17 19 18 18 19 19 20 22 24 26 24 22 20 19 18 19 20 19
19 19 19 19 19 19 19 19 18 15 15 16 16 16 17 17 17 17 16 17 17 15 17 20 22 23 22 21 20 21 21 19 19 20 18 16 16 15 15 14 14 15 16 16 17 17 17 15 13 13 13 14 15 15 15 16 16 16 17 18 17 16 16 17 15 14 16 16 16 15 15 16 15 15 16 16 17 20 22 23 22 19 18 18 18 19 20 20
19 19 18 18 18 19 19 17 15 15 16 16 15 16 16 17 16 15 14 15 15 13 14 16 17 19 19 18 18 19 19 19 19 19 19 18 17 14 14 14 14 15 16 16 16 17 18 15 12 12 12 13 14 15 14 15 15 16 17 18 18 17 17 17 15 14 15 15 15 12 11 14 14 13 15 14 15 18 19 21 19 17 18 18 18 18 19 20
18 18 18 18 18 19 17 15 14 15 16 15 14 15 15 15 15 14 13 13 13 12 11 11 12 13 15 17 17 16 16 17 18 20 19 18 18 15 13 13 13 14 15 14 15 16 15 14 13 13 13 13 13 14 13 13 14 15 15 16 17 17 16 16 15 14 14 14 14 12 11 13 13 13 14 13 14 16 17 17 17 17 18 19 18 18 18 19
18 18 18 17 17 17 15 14 15 15 14 13 14 14 14 14 14 12 11 11 11 10 9 9 8 9 11 15 17 15 14 14 15 19 20 18 17 16 15 14 13 13 13 13 14 14 14 14 13 13 12 12 12 12 11 11 11 13 13 13 15 15 16 16 14 14 14 14 15 13 11 12 13 13 12 11 11 12 13 14 15 16 18 18 18 18 18 19
18 18 17 17 17 16 15 15 15 14 13 14 14 14 14 14 13 11 9 8 9 8 7 7 7 8 9 13 16 15 13 12 12 16 20 19 17 16 15 15 14 13 13 13 14 13 12 14 14 13 12 11 12 11 10 10 11 12 11 12 14 15 15 15 14 14 14 13 15 14 11 11 12 12 11 9 9 10 12 14 14 15 17 18 19 19 18 18
18 17 17 16 16 16 15 15 14 13 14 14 14 14 13 12 11 9 7 8 8 7 7 6 7 7 7 11 15 14 12 11 10 12 16 18 18 15 14 15 14 13 13 14 15 13 12 14 14 13 12 12 12 12 10 11 13 12 10 11 13 13 14 14 14 14 13 13 16 16 12 11 12 11 9 8 9 10 12 12 13 14 16 17 19 19 19 19
17 17 16 16 16 14 13 14 14 14 13 13 13 13 12 11 9 8 8 9 8 7 7 7 7 7 6 8 12 14 12 11 9 10 13 15 16 15 14 14 13 12 13 14 15 15 13 13 13 13 13 12 13 13 11 13 14 11 10 12 13 12 13 13 13 13 12 14 17 17 14 12 12 12 10 10 11 12 12 11 12 13 14 17 19 19 20 20
17 16 16 16 15 14 13 13 13 13 13 13 12 11 10 9 9 8 9 9 9 9 8 8 7 7 7 8 11 13 13 12 10 11 12 12 14 14 13 12 13 12 13 14 14 14 14 14 14 14 14 13 13 13 11 12 13 11 10 12 12 12 12 12 12 12 12 15 16 16 14 13 14 13 11 11 12 13 13 13 13 14 15 17 19 19 20 20
16 16 16 15 15 14 13 13 13 12 13 12 11 10 9 9 9 10 10 9 9 9 9 9 8 8 9 10 12 13 14 14 13 12 12 13 13 15 14 13 14 13 13 14 14 14 15 16 14 13 14 14 12 13 11 10 11 11 10 10 10 10 10 11 12 12 13 15 15 13 12 13 14 14 13 12 12 13 14 14 14 14 15 17 18 19 20 20
15 16 15 14 14 14 14 14 13 13 13 11 10 9 9 8 10 11 11 10 10 10 10 10 10 9 9 10 11 13 13 14 14 13 13 13 14 15 15 14 14 13 12 13 13 14 14 15 14 13 13 13 13 13 12 11 11 12 11 11 11 9 8 10 11 11 13 14 14 13 12 12 13 13 12 12 13 13 13 13 13 14 15 16 18 19 20 20
15 15 14 13 13 13 13 13 13 12 12 11 10 9 9 9 10 11 10 11 12 11 10 10 11 10 8 8 10 12 13 13 14 13 12 13 14 15 15 15 15 14 13 12 12 13 13 13 14 14 13 11 12 13 13 11 12 12 12 11 11 11 10 10 11 11 12 13 12 12 12 12 13 13 12 12 11 10 10 11 12 13 14 16 18 19 20 21
14 13 12 12 11 12 11 11 11 11 11 10 9 9 10 11 11 10 10 12 12 12 12 11 10 10 8 8 9 10 12 13 13 13 14 14 15 15 15 15 15 14 13 13 12 12 13 14 14 14 13 11 11 12 11 10 11 12 12 11 11 12 11 10 11 11 11 11 11 11 12 13 13 13 11 10 9 8 9 11 12 13 14 16 19 20 20 20
12 11 11 11 10 10 9 9 9 9 9 9 8 10 12 12 11 11 11 12 12 12 12 11 10 9 9 9 9 9 10 13 13 13 14 15 15 15 15 15 16 16 15 14 13 11 12 14 14 13 13 13 13 12 11 11 12 12 11 12 12 12 11 11 11 10 9 10 11 12 12 12 12 12 11 10 9 8 9 10 11 13 14 16 18 19 20 19
10 9 9 10 10 8 7 7 7 7 8 7 8 11 12 12 12 12 12 12 13 12 10 10 11 10 10 9 10 9 9 12 13 14 14 14 14 15 15 15 15 17 17 15 14 13 12 14 14 13 13 13 13 13 12 12 12 12 12 13 12 10 10 11 10 9 8 10 11 11 12 12 12 13 12 11 10 10 9 10 11 12 14 15 16 18 18 18
9 8 8 9 9 8 7 7 7 7 7 7 9 10 11 11 12 12 12 12 13 12 10 11 12 11 11 10 11 11 10 11 12 14 14 14 13 13 14 15 14 14 16 15 14 13 12 13 14 14 14 12 11 11 12 12 13 14 13 12 11 10 10 11 11 10 9 11 11 11 11 13 13 13 13 12 12 11 10 10 11 12 13 14 15 16 17 17
8 7 6 7 7 7 7 7 7 7 6 7 9 10 10 12 12 13 13 13 12 12 12 13 13 12 12 12 12 12 11 11 11 12 13 14 14 13 13 14 14 13 14 14 13 13 11 11 13 14 13 12 9 10 12 13 12 13 14 13 12 12 11 11 12 12 11 11 12 12 11 13 14 14 14 14 13 13 13 12 11 12 13 13 13 13 14 14
6 6 6 6 7 7 7 6 6 6 6 8 9 10 10 11 12 13 14 13 12 13 13 13 13 13 14 14 13 13 12 11 11 11 12 13 14 14 13 14 14 14 14 13 13 13 10 10 12 13 12 11 10 11 12 13 12 12 14 14 13 13 12 11 11 11 11 11 12 12 13 14 15 14 14 15 14 14 15 14 12 12 13 13 12 12 12 11
6 5 6 6 6 7 6 5 6 6 7 8 9 10 11 11 12 13 14 13 13 14 14 14 14 14 15 14 13 14 12 12 12 12 12 12 13 13 13 14 15 15 15 13 14 14 12 10 12 12 12 12 13 12 11 11 11 11 13 14 14 13 13 11 11 11 11 12 13 13 13 14 14 13 13 13 13 13 14 14 13 13 13 13 12 11 11 10
5 5 5 6 7 6 4 5 7 7 7 9 10 11 12 12 12 13 13 13 14 14 15 14 15 15 16 15 15 14 13 12 12 12 13 13 12 12 11 12 13 14 15 15 15 16 14 12 12 13 13 14 15 13 11 11 11 10 11 13 14 14 13 12 12 12 11 11 12 11 11 13 13 12 12 12 12 11 12 13 13 13 12 12 12 11 10 10
5 5 5 6 6 5 4 6 7 8 8 10 11 11 12 12 12 13 13 13 13 14 15 15 15 15 15 15 15 15 14 12 12 12 13 13 12 12 11 10 11 12 13 14 14 16 16 13 13 13 12 13 14 13 12 12 12 10 10 11 12 13 15 15 14 12 11 12 12 10 11 13 13 12 12 11 11 10 10 11 12 12 12 11 11 11 10 9
5 4 5 5 5 4 5 6 7 8 9 10 10 10 11 11 11 12 13 13 14 15 15 16 16 15 15 15 15 15 15 14 12 12 13 13 12 12 11 10 10 10 11 13 14 14 15 15 14 12 11 11 12 12 12 13 13 12 12 11 11 12 13 15 15 12 12 13 13 12 12 13 13 12 12 11 11 11 10 10 11 11 10 10 9 9 8 8
5 4 4 4 4 4 5 6 6 7 9 9 9 10 10 10 11 11 12 13 14 14 15 16 17 17 16 14 14 15 15 14 14 13 13 14 13 12 11 10 10 10 10 11 11 12 14 15 15 14 13 13 13 13 14 14 13 13 13 12 11 9 10 13 14 13 13 14 13 13 13 13 13 13 12 11 12 12 9 8 8 9 9 8 8 7 7 6
5 4 4 4 4 4 4 5 5 6 7 7 8 9 9 9 10 10 10 11 12 13 14 15 17 17 16 15 15 15 15 14 14 13 14 15 14 13 13 11 10 10 9 8 9 11 13 14 15 15 14 14 14 15 15 15 14 14 14 13 12 10 9 10 11 13 14 14 13 14 14 13 14 14 14 13 13 11 9 8 8 8 8 6 5 5 6 6
4 4 4 3 4 4 4 6 5 5 6 6 6 8 8 8 9 9 8 8 10 11 12 14 15 16 16 16 15 15 15 14 13 13 14 15 15 14 13 12 10 10 9 8 9 11 12 13 14 14 13 13 13 14 14 13 14 14 14 14 14 12 10 9 10 12 13 13 14 15 14 14 15 15 14 14 13 11 10 9 9 8 8 6 5 5 5 5
4 4 3 3 3 3 4 5 5 5 6 5 5 7 8 8 8 8 8 8 8 9 11 12 13 15 16 17 16 15 15 15 14 15 15 14 15 14 13 13 12 10 9 9 9 10 12 13 14 14 13 12 12 12 12 12 13 13 13 14 15 15 13 11 12 13 12 13 15 15 14 13 14 14 14 14 12 10 9 9 9 9 8 7 5 5 5 5
3 3 3 2 2 3 3 4 5 5 6 6 6 7 7 7 8 8 8 8 8 9 9 10 13 14 15 15 15 15 16 16 16 17 16 15 14 14 14 14 14 12 10 10 10 10 11 12 14 15 14 13 13 13 12 11 12 13 13 13 14 15 16 14 14 13 12 13 14 14 13 12 13 13 13 12 10 9 9 9 9 8 8 7 6 5 6 6
2 2 2 1 2 3 3 4 4 4 5 6 6 7 6 6 7 8 7 6 7 9 8 8 11 13 14 14 14 15 17 17 17 18 18 16 15 15 14 14 14 13 12 11 11 10 10 11 12 13 13 14 14 14 13 12 12 12 12 12 13 14 16 16 15 14 13 11 11 12 13 13 13 12 12 11 11 10 9 9 9 9 9 9 8 7 6 6
3 2 2 1 2 4 4 4 4 4 5 6 5 6 6 5 5 6 7 6 6 7 7 8 10 11 12 12 14 16 17 18 18 19 19 18 17 16 15 14 13 13 12 11 10 10 9 9 10 11 11 12 13 14 14 14 13 13 12 12 13 14 16 17 18 17 16 13 12 13 14 14 14 13 12 12 11 10 9 9 9 9 9 9 8 8 7 7
2 2 1 1 1 3 4 4 5 5 5 5 5 5 5 5 5 5 5 6 6 6 6 7 8 9 10 11 13 15 17 17 18 19 18 19 19 18 17 17 15 14 13 12 10 9 8 8 8 8 9 11 13 14 15 15 15 15 15 14 14 15 16 16 17 17 17 16 15 15 15 15 14 14 13 12 11 10 10 10 9 10 10 9 9 9 8 8
Wind_Direction
273 272 272 272 272 272 272 272 272 272 272 272 273 273 274 274 274 273 272 272 272 272 274 274 275 276 277 279 279 280 281 281 281 278 272 271 270 265 262 265 261 251 252 256 255 254 253 253 251 249 248 247 247 246 244 243 242 244 244 243 243 241 236 228 225 227 231 238 242 251 256 246 256 259 245 238 237 236 245 251 248 254 249 239 236 217 211 215
273 273 273 273 273 273 273 273 273 273 273 273 273 273 274 274 274 274 273 273 273 273 273 274 275 276 278 279 280 281 281 279 279 274 269 270 270 264 259 261 260 250 251 255 254 251 250 251 248 246 245 246 247 244 243 243 240 241 242 243 242 237 234 228 228 232 234 238 244 253 251 246 255 258 248 241 245 246 246 253 249 243 238 235 224 211 215 213
273 273 273 273 273 273 273 273 273 273 273 274 274 274 274 274 274 274 274 274 274 274 274 275 275 277 278 278 280 281 280 278 276 269 266 270 269 264 256 255 255 249 250 253 251 249 250 249 244 243 244 245 246 242 242 242 240 240 240 243 241 235 238 236 233 236 238 240 244 250 249 251 258 257 247 237 242 248 244 242 241 234 227 224 218 216 221 216
273 273 273 273 273 272 272 272 273 273 273 274 274 275 274 274 274 273 274 274 275 275 275 275 276 277 277 278 280 280 280 278 271 263 265 272 271 264 253 250 252 249 250 253 250 247 249 248 243 242 243 246 247 244 243 242 241 241 238 241 239 234 238 236 234 238 241 242 242 246 250 255 258 253 238 230 240 253 248 238 231 224 218 215 217 220 222 219
274 274 274 274 274 273 272 272 273 273 273 274 274 274 274 274 274 273 274 274 275 275 276 276 276 278 278 278 278 278 278 274 266 261 265 272 270 261 252 248 249 249 250 251 249 245 247 247 243 243 244 245 245 245 245 242 241 243 242 242 240 237 237 236 237 239 241 243 243 244 247 250 253 248 233 228 240 248 245 237 229 220 215 214 216 220 221 218
276 275 275 275 275 274 273 273 273 273 273 274 273 274 274 273 273 273 273 274 274 275 276 277 277 278 278 278 276 274 271 268 266 265 267 270 264 257 251 247 247 248 248 248 247 244 243 244 243 244 245 245 243 242 245 243 241 245 247 243 240 238 235 237 241 242 241 242 242 242 246 250 252 249 239 235 241 246 242 235 229 223 218 216 216 218 219 218
277 277 276 276 276 275 275 274 273 273 273 273 273 273 273 273 273 273 273 274 274 275 276 277 277 277 278 278 273 271 267 265 266 265 267 266 258 254 249 246 247 248 248 245 244 242 240 242 242 243 244 246 243 241 245 245 241 243 247 244 242 240 236 239 243 243 242 240 242 246 249 251 250 249 245 243 246 247 240 232 226 222 218 218 219 220 220 220
277 277 278 277 277 277 276 275 274 274 274 273 273 272 272 272 272 273 273 273 274 275 275 276 276 277 277 275 271 271 268 264 265 264 265 261 254 252 247 246 248 248 247 244 242 239 238 239 240 242 244 245 244 243 245 247 245 242 245 245 242 241 239 242 243 243 243 241 244 247 245 246 247 247 247 248 249 242 232 227 220 216 216 220 222 222 223 224
277 277 278 278 278 277 276 276 275 275 274 274 273 273 273 273 273 273 273 273 274 274 275 275 275 276 275 272 270 271 268 264 265 264 260 255 251 248 246 248 248 248 249 246 242 238 236 237 238 239 242 245 245 246 245 244 246 242 242 244 242 242 241 242 243 242 242 241 242 243 241 244 249 246 247 249 244 233 226 223 220 217 218 223 225 225 226 227
278 278 278 278 277 277 277 277 276 276 276 275 275 274 274 274 273 274 273 274 274 274 275 274 274 274 272 270 268 267 266 265 266 263 256 252 250 247 249 250 247 247 249 246 241 236 236 236 236 238 242 246 245 246 243 239 245 245 244 246 243 244 243 241 241 241 241 241 240 240 239 244 248 243 244 243 235 229 224 223 225 223 224 225 226 226 227 228
278 278 278 278 278 278 277 277 277 277 277 277 277 276 276 275 275 274 274 274 274 274 274 273 273 272 270 269 263 262 264 264 262 261 256 252 250 249 251 253 249 246 246 246 241 237 236 234 234 237 243 247 247 248 244 240 247 250 250 252 248 246 245 240 238 239 239 239 238 236 239 244 245 241 240 236 230 229 224 226 229 227 229 228 226 226 227 226
278 278 279 278 278 278 278 278 278 277 277 277 277 277 277 276 276 275 274 274 273 273 273 272 272 270 270 268 262 260 262 262 260 260 258 254 253 252 252 253 250 246 244 245 244 239 234 232 233 237 243 248 250 251 249 249 252 252 251 253 251 249 246 238 234 236 235 237 237 234 241 245 242 242 241 230 226 230 227 227 229 229 230 229 226 226 225 223
279 279 279 279 279 278 278 278 278 278 277 277 277 277 277 277 277 276 275 273 272 272 272 272 271 270 269 266 263 262 262 262 262 261 259 257 255 253 251 250 250 247 244 243 244 238 231 230 231 236 245 250 249 249 253 256 256 252 250 251 252 252 248 238 233 235 235 237 235 232 241 245 243 245 240 228 224 228 231 231 229 229 229 227 225 224 223 221
279 280 280 279 279 279 279 279 278 278 278 278 278 277 277 277 277 275 274 272 271 271 271 270 269 269 266 263 266 267 264 261 260 258 256 254 253 252 249 247 247 244 241 241 243 238 230 230 234 240 247 249 249 253 257 256 253 253 253 251 250 248 245 241 238 236 236 239 232 229 240 242 243 246 238 227 224 223 230 233 229 227 225 224 223 222 221 220
280 280 280 280 280 280 279 279 279 279 279 279 279 279 279 278 276 275 273 271 270 270 270 269 268 268 267 266 268 267 263 259 257 254 251 247 246 248 246 243 243 241 238 239 239 237 231 231 236 242 247 249 250 253 256 256 254 254 254 253 249 243 241 244 242 235 235 240 232 230 241 242 242 245 237 228 227 226 230 232 229 226 223 222 221 222 223 221
281 281 281 281 281 281 280 280 280 280 280 280 280 280 280 278 276 273 271 269 268 268 268 268 267 266 266 266 266 265 262 258 256 254 248 241 239 244 245 242 242 238 235 236 235 235 235 235 239 242 245 248 246 246 255 260 258 254 251 251 250 246 244 243 241 237 234 238 238 235 240 242 242 245 237 228 229 231 233 232 229 227 224 222 222 222 223 222
281 282 282 282 282 281 281 281 281 281 281 281 281 281 280 278 275 271 269 269 268 267 266 267 266 266 264 263 263 263 260 257 255 254 248 239 236 239 241 241 240 234 232 235 234 234 236 238 241 244 245 245 243 244 253 256 254 254 253 250 248 246 244 241 240 241 236 234 239 241 241 242 243 244 235 227 229 232 234 232 228 227 225 224 223 223 223 222
282 282 282 283 282 282 281 281 281 281 282 282 281 281 278 276 273 270 268 268 267 267 266 266 265 266 264 260 260 258 255 255 256 254 250 241 234 235 238 239 237 231 230 233 233 232 234 238 240 244 246 243 242 241 244 247 245 247 250 249 249 247 242 239 237 240 242 237 239 243 245 244 243 243 236 229 231 233 233 230 226 225 224 224 224 223 223 221
281 282 283 283 282 282 282 282 282 282 282 282 281 279 274 274 274 271 269 268 266 266 267 263 259 260 260 258 259 257 256 257 258 254 248 240 234 234 237 237 234 229 229 231 232 231 232 238 241 243 244 240 240 240 240 242 241 243 246 244 247 249 244 239 235 238 245 247 244 244 247 247 245 243 237 231 231 232 232 230 227 226 224 224 224 224 222 221
281 282 283 283 282 283 283 283 283 283 283 281 280 278 274 277 276 272 273 271 266 265 267 263 258 259 261 260 259 258 258 256 254 249 244 239 233 232 235 234 231 229 227 227 232 233 231 237 241 240 238 237 239 241 241 244 247 250 251 248 246 247 246 241 236 239 246 250 247 246 249 251 248 245 239 229 229 232 232 231 229 225 224 224 223 223 220 219
282 282 282 283 283 283 284 284 283 283 283 279 278 277 275 279 277 274 277 274 269 267 266 264 260 259 258 257 255 254 256 254 249 246 244 239 230 229 234 231 228 231 229 226 232 237 234 236 240 236 234 237 240 241 241 245 248 248 249 251 249 245 246 244 239 242 245 246 248 251 254 254 249 246 241 228 227 231 229 228 228 224 223 223 220 218 216 216
282 282 282 283 283 284 284 284 284 283 280 275 275 275 275 279 279 279 278 277 275 268 265 263 260 258 255 252 251 248 247 249 248 246 241 235 229 230 233 229 227 231 231 229 232 238 238 238 239 236 236 240 245 245 242 244 246 245 245 248 247 244 247 247 241 243 245 244 250 256 257 255 251 248 241 228 227 229 225 223 223 220 219 218 215 212 210 210
281 282 283 283 283 284 283 284 283 279 275 273 274 274 276 281 285 285 281 279 280 271 264 261 256 255 253 249 247 240 239 240 242 243 238 232 231 230 229 229 229 229 229 228 228 233 238 239 237 237 237 239 247 247 243 246 246 243 242 243 244 243 245 245 242 246 248 248 252 259 262 257 253 250 242 229 225 226 223 221 221 219 218 215 211 209 207 208
281 282 282 283 284 283 284 284 279 273 274 275 273 274 277 283 288 289 283 281 283 276 268 261 254 252 249 245 240 235 236 236 235 238 235 229 229 229 228 228 227 228 229 226 226 231 237 237 233 232 233 234 243 247 243 245 247 244 239 238 241 241 239 240 244 250 254 253 249 255 265 259 251 246 239 230 224 224 224 222 222 221 217 212 208 209 210 210
281 282 282 284 284 284 285 281 271 271 277 275 272 274 279 284 289 288 284 285 286 281 276 267 257 250 244 238 235 232 235 236 233 233 231 227 225 227 229 228 226 228 229 225 226 234 238 235 228 229 233 232 238 244 241 238 245 248 241 234 235 237 237 239 246 253 256 255 245 245 258 256 250 241 235 233 226 225 225 221 219 216 211 206 206 210 213 212
281 281 282 284 284 286 283 273 268 276 277 270 270 277 279 283 289 286 283 288 286 282 283 274 258 248 239 232 229 229 236 239 234 229 227 226 223 223 227 228 228 229 227 226 231 236 235 230 225 227 231 231 236 244 239 231 240 249 241 229 227 230 235 239 244 245 245 244 241 239 245 250 252 244 240 240 229 224 223 218 215 212 208 206 206 210 212 208
281 281 282 283 283 285 278 269 273 276 270 268 273 278 278 282 285 282 282 288 284 278 281 273 255 244 239 229 219 220 234 240 233 227 223 222 222 221 225 228 229 229 227 227 234 235 227 224 224 223 225 228 235 241 234 220 232 245 234 219 222 226 230 236 239 239 240 241 243 244 240 244 247 240 240 242 226 220 218 213 215 213 208 207 206 207 206 203
280 281 281 281 281 280 273 270 274 271 265 270 276 275 275 278 278 276 280 282 277 274 276 266 246 243 244 225 213 219 233 232 230 228 220 216 219 219 224 227 225 229 227 222 229 232 221 218 219 219 224 230 231 233 226 215 230 242 228 217 223 226 229 235 236 240 243 242 244 246 240 238 240 236 238 234 216 214 215 213 215 214 210 208 205 204 203 201
280 280 280 279 279 276 270 268 268 267 267 273 277 273 271 272 271 271 272 268 267 268 267 258 248 251 243 218 215 225 231 226 228 224 212 213 218 220 226 226 221 228 230 224 228 231 221 217 217 219 227 230 230 235 229 221 233 240 229 226 231 232 236 238 235 238 241 237 237 239 234 233 235 234 232 228 220 220 221 220 218 213 210 208 204 203 203 202
280 279 278 277 276 273 269 267 266 266 269 275 276 271 265 263 264 265 261 256 257 261 258 252 256 262 247 224 225 227 226 227 225 211 206 212 215 219 226 225 221 227 233 233 233 231 227 224 223 224 227 228 231 238 232 224 230 237 235 235 238 241 241 239 237 235 235 236 234 233 229 227 231 229 219 219 227 224 220 222 219 213 210 207 205 203 203 204
280 279 277 274 272 270 268 267 265 264 268 273 273 267 257 256 258 252 250 253 253 257 261 256 258 262 250 237 231 225 222 225 221 208 210 213 212 217 224 225 225 229 235 237 236 236 235 231 231 230 228 228 234 241 238 230 229 232 236 233 234 242 239 237 242 233 228 233 232 231 227 220 222 226 223 227 233 227 220 219 216 214 211 207 205 204 203 205
280 278 275 271 267 264 264 263 263 265 268 270 270 262 248 251 254 244 248 259 253 254 263 262 261 260 254 244 230 222 220 222 222 217 216 216 216 220 222 222 223 226 234 234 232 238 237 232 234 234 230 226 232 244 247 239 227 220 224 221 222 235 234 235 239 230 227 231 229 228 225 218 218 223 231 239 239 234 230 225 217 214 212 207 205 204 203 204
280 277 274 268 262 260 261 262 263 265 266 264 264 258 244 246 250 244 249 254 248 254 262 262 263 259 255 248 231 222 220 223 225 224 224 222 221 224 226 225 221 223 232 231 228 234 236 237 236 233 234 228 225 235 241 236 223 214 217 217 217 225 228 234 238 232 230 229 227 226 223 223 224 225 235 242 240 235 230 226 220 214 210 207 205 204 204 207
279 276 270 262 259 260 261 262 260 261 262 259 257 253 242 242 247 248 251 249 250 258 259 259 261 254 247 241 231 224 221 225 227 224 226 226 224 226 228 228 225 225 231 232 230 228 228 236 231 222 228 229 223 227 228 224 222 222 223 219 220 222 220 228 232 228 228 226 226 228 224 224 226 228 237 240 239 231 218 216 216 212 210 208 206 206 207 211
277 272 264 257 258 260 259 257 256 257 257 254 253 247 238 242 248 249 251 252 256 260 259 256 248 241 241 238 235 232 224 224 227 226 226 224 223 226 227 229 227 223 225 229 233 230 226 232 230 222 224 227 228 230 221 217 227 231 226 220 225 224 219 226 226 221 223 222 224 228 225 226 226 230 239 237 232 223 212 210 209 211 213 208 207 208 209 212
274 267 258 253 255 257 254 251 252 252 250 248 249 246 242 244 246 244 250 256 259 260 259 252 237 232 244 243 241 244 230 221 224 228 228 226 225 226 226 229 228 222 222 225 230 231 228 231 231 228 229 229 229 228 221 221 226 228 225 224 228 224 216 223 227 227 226 222 224 224 222 229 230 230 240 239 230 222 216 212 208 211 214 208 206 207 208 210
271 265 254 249 249 248 244 244 246 248 249 247 246 247 246 248 246 245 253 258 257 255 248 241 238 236 242 245 244 247 236 227 228 228 229 230 229 226 225 229 229 225 222 224 230 234 232 233 231 227 232 236 232 225 226 228 221 218 225 226 225 225 223 221 222 229 228 224 227 223 221 229 229 229 236 239 235 229 226 222 213 209 211 210 207 206 206 208
267 259 250 247 242 237 235 238 247 254 256 254 252 251 249 251 251 251 256 256 252 250 239 236 240 238 239 245 246 244 237 232 232 229 227 228 228 225 224 227 230 228 222 219 227 235 233 235 235 227 227 238 239 225 228 236 227 219 222 225 220 221 225 221 217 221 220 221 228 228 228 231 227 227 230 230 231 228 227 230 221 210 212 215 211 207 206 208
259 249 248 248 237 230 232 239 252 263 263 258 254 253 252 252 252 254 256 253 248 246 239 236 239 240 241 242 242 241 237 232 232 229 226 225 226 224 222 224 225 225 221 216 221 230 229 227 233 229 224 233 240 225 224 234 235 226 224 228 228 221 219 220 220 220 216 218 225 228 233 234 229 228 226 226 230 225 220 226 224 215 215 219 218 213 209 209
247 240 246 246 230 224 231 246 261 269 266 259 254 254 257 255 254 255 256 252 246 244 240 238 239 240 239 238 238 239 238 234 231 228 225 225 226 227 225 223 221 219 219 219 220 226 228 224 228 232 230 232 234 226 220 222 226 227 223 225 230 225 221 222 224 224 220 220 223 226 233 236 231 228 225 227 231 228 224 226 227 222 216 217 223 220 214 213
236 236 246 239 222 221 234 257 270 272 268 266 262 260 262 261 258 257 258 254 248 243 240 239 239 237 235 236 236 237 239 237 232 228 227 227 226 228 228 223 221 220 221 226 226 226 228 225 226 234 236 233 231 228 223 217 215 217 219 222 224 220 216 218 227 230 225 223 222 222 231 237 232 227 227 229 231 232 230 227 226 225 219 216 220 218 218 223
226 234 244 231 219 225 245 270 278 277 271 270 270 269 269 267 261 259 259 256 250 245 241 240 239 237 235 235 233 235 237 238 236 232 229 228 224 224 228 226 222 221 222 227 230 227 226 224 226 235 237 230 227 226 226 224 215 212 219 223 221 219 217 216 223 229 225 225 225 223 230 235 229 225 225 227 229 233 236 230 224 222 217 215 219 223 227 230
219 232 238 226 223 236 267 285 290 289 280 278 279 276 273 269 264 263 262 257 251 247 244 242 241 238 237 236 235 235 235 235 238 235 228 227 224 224 229 229 224 223 222 227 231 228 227 225 226 232 236 231 229 229 229 230 224 220 227 228 222 223 224 220 223 227 222 222 223 225 233 234 228 227 225 223 223 227 236 238 229 220 214 215 220 223 225 225
213 225 231 228 233 255 279 285 290 291 286 287 287 282 278 272 266 265 262 258 254 249 245 244 242 240 239 238 236 237 235 232 234 235 228 226 226 227 232 231 227 226 226 228 229 228 227 225 220 222 228 231 234 235 233 233 229 224 227 230 227 226 224 224 228 229 227 226 221 220 232 233 226 226 226 222 220 221 228 233 229 223 218 214 213 214 217 220
208 221 235 242 250 271 286 284 287 290 290 292 290 286 284 277 272 268 261 258 257 251 245 245 244 240 240 240 238 239 236 230 231 233 231 231 231 232 235 233 226 226 229 230 230 226 223 221 219 217 220 224 229 232 231 230 230 228 227 231 231 228 226 228 228 226 228 230 224 221 228 228 219 219 222 219 216 216 218 220 217 216 212 204 202 209 216 217
210 225 241 257 275 291 294 294 299 298 295 294 289 285 284 280 278 275 264 261 264 258 248 246 245 241 240 239 239 240 238 233 232 230 231 234 233 232 236 232 226 229 230 231 234 226 220 221 222 218 218 222 225 230 231 227 226 229 230 230 229 227 229 227 226 228 229 227 227 229 228 220 215 216 217 217 215 215 219 219 212 209 207 202 197 206 216 217
213 229 234 251 283 303 309 310 315 314 305 300 292 289 286 280 279 279 273 270 272 264 252 248 246 240 238 238 235 237 239 235 232 230 231 233 231 233 237 231 228 237 234 234 241 230 220 225 227 221 221 226 229 234 234 228 225 229 231 231 230 231 231 226 226 232 228 223 230 235 228 220 219 217 216 218 219 220 223 223 219 217 216 215 207 201 205 202
217 231 236 246 270 291 313 317 321 326 320 312 306 299 289 282 279 276 275 277 280 273 258 253 250 241 239 237 230 232 238 233 230 231 231 232 232 232 234 229 229 238 236 236 242 229 220 227 229 224 224 230 236 239 235 228 228 232 233 234 235 234 230 227 231 232 226 226 233 232 225 224 222 216 215 220 221 220 220 219 219 218 215 213 203 186 180 174
219 231 249 265 267 275 306 324 335 341 330 320 318 309 294 285 279 272 273 278 282 280 264 255 254 245 239 235 227 228 234 228 227 230 228 228 231 228 227 229 231 235 235 237 241 233 225 230 231 228 227 232 239 241 236 231 232 234 236 238 240 236 229 228 233 233 228 232 233 223 216 223 226 220 217 217 214 213 216 217 219 219 215 210 201 186 176 172
215 223 242 279 307 308 323 337 346 346 332 328 327 319 307 293 278 274 278 279 277 279 270 258 257 246 233 229 224 226 229 223 222 226 224 222 227 226 225 227 230 234 234 236 244 244 235 232 234 231 228 234 240 238 235 234 232 233 237 242 246 242 234 231 234 235 234 235 231 218 213 222 230 227 219 213 209 210 217 224 226 225 220 210 201 196 192 188
204 215 226 242 318 322 331 339 344 343 336 334 333 328 325 311 288 281 279 273 271 276 269 257 255 245 230 227 225 226 229 224 222 225 224 222 223 224 222 223 229 233 232 232 241 246 238 233 238 234 229 236 241 237 236 237 235 234 239 245 247 241 236 235 236 238 237 230 223 220 219 223 228 226 220 217 216 216 223 231 231 228 225 216 207 204 202 198
204 222 233 206 303 319 330 341 345 343 336 332 330 333 333 319 310 307 288 278 282 285 275 256 247 242 233 229 229 228 229 229 229 228 226 225 225 224 224 228 232 230 225 224 231 237 230 224 233 233 228 235 241 239 236 236 236 236 237 239 240 237 237 238 238 241 240 231 225 227 226 224 224 223 222 225 226 226 232 237 236 232 231 228 220 213 211 209